[[{"header":{"parameterUnit":"m.s-1","parameterCategory":1,"la1":30.2991,"la2":30.254,"lo1":-89.0895,"lo2":-89.0444,"dy":0.0017,"dx":0.0017,"nx":28,"ny":28,"refTime":"2024-05-12T03:00:00:Z","depth":0,"parameterNumber":2,"parameterNumberName":"U-component_of_WINDS"},"data":[0,0,0,0,0,0,0,0,0,0,0,0,0,0,0,0,0,0,0,0,0,0,0,0,0,0,0,0,0,0,0,0,0,0,0,0,0,0,0,0,0,0,0,0,0,0,0,0,0,0,0,0,0,0,0,0,0,0,-0.4002,-0.4002,0,-0.3931,-0.393,-0.3929,-0.3896,-0.3896,-0.3896,-0.3896,-0.382,-0.3817,-0.3815,0,0,0,0,0,0,0,0,0,0,0,0,0,-0.411,-0.4108,-0.4003,-0.4002,-0.4001,-0.3931,-0.393,-0.3929,-0.3896,-0.3896,-0.3896,-0.3896,-0.382,-0.3818,-0.3815,0,0,0,0,0,0,0,0,0,0,0,0,0,-0.4053,-0.4107,-0.4003,-0.3976,-0.3973,-0.3931,-0.393,-0.3929,-0.3896,-0.3896,-0.3896,-0.3896,-0.3821,-0.3818,-0.3815,-0.3793,0,0,-0.3805,-0.3804,0,0,0,0,0,0,0,0,-0.4056,-0.4049,-0.3981,-0.3978,-0.3974,-0.3922,-0.3939,-0.3883,-0.3896,-0.3925,-0.3896,-0.3896,-0.3853,-0.3848,-0.3834,-0.379,-0.3787,-0.3805,-0.3803,-0.3802,-0.3801,0,0,0,0,0,0,0,-0.406,-0.4052,-0.3974,-0.398,-0.3976,-0.3967,-0.3959,-0.3929,-0.3889,-0.3922,-0.392,-0.3912,-0.3852,-0.3837,-0.3832,-0.3785,-0.3805,-0.3802,-0.38,-0.3799,-0.3721,-0.3721,0,0,0,0,0,0,-0.4069,-0.4055,-0.3976,-0.3972,-0.4016,-0.3965,-0.3956,-0.3939,-0.389,-0.3882,-0.3912,-0.3911,-0.3842,-0.3836,-0.3829,-0.3801,-0.3802,-0.3799,-0.3797,-0.3721,-0.3721,-0.3721,0,0,0,0,0,0,-0.4071,-0.4062,-0.3979,-0.4013,-0.4002,-0.3963,-0.3944,-0.3937,-0.3923,-0.3882,-0.3874,-0.3904,-0.3842,-0.3833,-0.3803,-0.3798,-0.3797,-0.3794,-0.3722,-0.3721,-0.3721,-0.3745,0,0,0,0,0,0,-0.4074,-0.4063,-0.4055,-0.4013,-0.4,-0.3955,-0.3944,-0.3936,-0.3918,-0.3915,-0.3873,-0.3866,-0.3842,-0.3808,-0.38,-0.3794,-0.3792,-0.3722,-0.3722,-0.3721,-0.3745,-0.3746,-0.3747,0,0,0,0,0,-0.4078,-0.4064,-0.4055,-0.4045,-0.3989,-0.3955,-0.3947,-0.3921,-0.3917,-0.3909,-0.3883,-0.3867,-0.38,-0.3805,-0.3796,-0.3789,-0.3722,-0.3722,-0.3721,-0.3744,-0.3746,-0.3747,0,0,0,0,0,0,-0.4104,-0.4058,-0.4047,-0.4018,-0.3991,-0.3949,-0.3937,-0.3923,-0.3895,-0.3894,-0.3861,-0.3852,-0.3824,-0.3803,-0.381,-0.3766,-0.376,-0.3757,-0.3781,-0.3782,-0.3783,-0.3788,-0.3789,0,0,0,0,0,-0.4107,-0.4084,-0.4044,-0.4022,-0.4009,-0.3976,-0.396,-0.3942,-0.3912,-0.39,-0.3871,-0.3842,-0.3814,-0.3797,-0.3769,-0.3742,-0.3732,-0.3733,-0.3734,-0.3735,-0.3733,-0.3718,-0.3718,-0.372,-0.372,-0.372,0,0,-0.4112,-0.4083,-0.407,-0.4027,-0.4004,-0.398,-0.3966,-0.3941,-0.3923,-0.3895,-0.3865,-0.3844,-0.3809,-0.3781,-0.3766,-0.3762,-0.3731,-0.3734,-0.3736,-0.3733,-0.3718,-0.3718,-0.3717,-0.372,-0.372,-0.372,0,0,-0.4108,-0.4085,-0.4065,-0.4042,-0.4007,-0.3985,-0.3981,-0.3942,-0.3927,-0.3896,-0.3875,-0.3853,-0.3806,-0.3783,-0.3764,-0.3754,-0.3739,-0.3746,-0.3751,-0.3737,-0.3737,-0.3737,-0.3734,-0.3733,-0.3745,-0.3745,-0.3745,0,-0.4118,-0.4082,-0.4056,-0.4033,-0.4015,-0.399,-0.397,-0.3949,-0.3906,-0.3894,-0.389,-0.3832,-0.3807,-0.3773,-0.3771,-0.3757,-0.375,-0.375,-0.3739,-0.3739,-0.3738,-0.3735,-0.3734,-0.3746,-0.3746,-0.3746,-0.3745,0,-0.4097,-0.4072,-0.406,-0.4022,-0.4002,-0.398,-0.395,-0.3934,-0.3918,-0.3897,-0.3866,-0.3836,-0.3802,-0.3792,-0.3776,-0.3756,-0.3755,-0.3746,-0.3739,-0.374,-0.3736,-0.3734,-0.3747,-0.3747,-0.3747,-0.3746,0,0,-0.4106,-0.4055,-0.4051,-0.4033,-0.3994,-0.3975,-0.3952,-0.392,-0.3907,-0.3879,-0.3859,-0.3821,-0.3813,-0.3792,-0.3773,-0.3761,-0.3756,-0.3753,-0.3752,-0.3755,-0.3733,-0.374,-0.3739,-0.3746,-0.3745,-0.3745,-0.3736,0,-0.4097,-0.4057,-0.4033,-0.4002,-0.3979,-0.3957,-0.3937,-0.3911,-0.3891,-0.3868,-0.3845,-0.3819,-0.381,-0.3798,-0.3784,-0.3759,-0.3751,-0.376,-0.3727,-0.3726,-0.3736,-0.3737,-0.3744,-0.3737,-0.3734,-0.3734,-0.3734,0,-0.4081,-0.4056,-0.4023,-0.3988,-0.3977,-0.396,-0.393,-0.3909,-0.3879,-0.3865,-0.3843,-0.3825,-0.38,-0.3796,-0.3761,-0.3768,-0.3753,-0.3739,-0.3738,-0.3734,-0.373,-0.3733,-0.3734,-0.3733,-0.3731,-0.3731,-0.3732,0,-0.4092,-0.4049,-0.4024,-0.401,-0.3968,-0.3957,-0.3939,-0.3909,-0.3892,-0.3865,-0.3854,-0.3824,-0.3808,-0.3786,-0.376,-0.3759,-0.3728,-0.3722,-0.3716,-0.3717,-0.371,-0.3711,-0.3709,-0.3701,-0.3701,-0.3701,-0.3701,0,-0.4085,-0.4065,-0.4029,-0.4013,-0.3991,-0.3964,-0.3943,-0.3923,-0.3897,-0.3878,-0.3856,-0.3838,-0.3805,-0.3782,-0.3762,-0.3737,-0.373,-0.3718,-0.3713,-0.372,-0.3721,-0.3709,-0.3709,-0.3701,-0.3701,-0.3701,-0.3701,0,-0.4092,-0.4067,-0.4038,-0.4002,-0.3992,-0.3978,-0.3946,-0.3931,-0.391,-0.3885,-0.3878,-0.3845,-0.3818,-0.3791,-0.3753,-0.374,-0.3715,-0.3708,-0.3726,-0.3723,-0.3719,-0.372,-0.3709,-0.3707,-0.3701,-0.3701,-0.3701,0,-0.4089,-0.4074,-0.4037,-0.4023,-0.4005,-0.3982,-0.3966,-0.3939,-0.3922,-0.3888,-0.3876,-0.3848,-0.3824,-0.3782,-0.3754,-0.3726,-0.3718,-0.3716,-0.3713,-0.3721,-0.3718,-0.3719,-0.3718,-0.3717,-0.3717,-0.3717,-0.3717,0,-0.4086,-0.4075,-0.4052,-0.4025,-0.4005,-0.3982,-0.3958,-0.3948,-0.3917,-0.3899,-0.3872,-0.3853,-0.3816,-0.3788,-0.3757,-0.3738,-0.3723,-0.3719,-0.3716,-0.3723,-0.3734,-0.3729,-0.3729,-0.3719,-0.3719,-0.3719,-0.3719,-0.3719,-0.4088,-0.4074,-0.4046,-0.4022,-0.4001,-0.398,-0.3964,-0.3942,-0.3919,-0.3888,-0.3874,-0.3847,-0.3818,-0.3775,-0.3756,-0.3735,-0.373,-0.3726,-0.3725,-0.3724,-0.3726,-0.3738,-0.3729,-0.3729,-0.3729,-0.3729,-0.3729,0,-0.4084,-0.4066,-0.4043,-0.4012,-0.3992,-0.3981,-0.3955,-0.3939,-0.3916,-0.3891,-0.3868,-0.3838,-0.3811,-0.3783,-0.3754,-0.3742,-0.3735,-0.3736,-0.3736,-0.3732,-0.3732,-0.3737,-0.3743,-0.3743,-0.3743,-0.3743,-0.3743,-0.3743,-0.408,-0.4056,-0.4042,-0.4008,-0.3989,-0.3964,-0.395,-0.393,-0.391,-0.3878,-0.3856,-0.3838,-0.3812,-0.3782,-0.3757,-0.3749,-0.374,-0.3743,-0.3733,-0.3733,-0.3732,-0.3731,-0.3736,-0.3741,-0.3741,-0.3736,-0.3736,-0.3736]},{"header":{"parameterUnit":"m.s-1","parameterCategory":1,"la1":30.2991,"la2":30.254,"lo1":-89.0895,"lo2":-89.0444,"dy":0.0017,"dx":0.0017,"nx":28,"ny":28,"refTime":"2024-05-12T03:00:00:Z","depth":0,"parameterNumber":3,"parameterNumberName":"V-component_of_WINDS"},"data":[0,0,0,0,0,0,0,0,0,0,0,0,0,0,0,0,0,0,0,0,0,0,0,0,0,0,0,0,0,0,0,0,0,0,0,0,0,0,0,0,0,0,0,0,0,0,0,0,0,0,0,0,0,0,0,0,0,0,0.8584,0.8583,0,0.8467,0.8466,0.8464,0.8369,0.8368,0.8367,0.8366,0.8249,0.8247,0.8245,0,0,0,0,0,0,0,0,0,0,0,0,0,0.8727,0.8724,0.8584,0.8583,0.8581,0.8467,0.8466,0.8464,0.8369,0.8367,0.8366,0.8365,0.825,0.8247,0.8244,0,0,0,0,0,0,0,0,0,0,0,0,0,0.8643,0.8724,0.8584,0.852,0.8513,0.8468,0.8466,0.8464,0.8369,0.8367,0.8366,0.8365,0.825,0.8247,0.8244,0.8254,0,0,0.8234,0.8233,0,0,0,0,0,0,0,0,0.8648,0.8638,0.8531,0.8524,0.8516,0.8431,0.8473,0.8394,0.8369,0.8424,0.8366,0.8364,0.8311,0.8303,0.8284,0.8249,0.8244,0.8234,0.8232,0.823,0.823,0,0,0,0,0,0,0,0.8654,0.8642,0.8538,0.8529,0.852,0.8497,0.8484,0.8457,0.8377,0.8419,0.8412,0.8399,0.8307,0.8287,0.8281,0.8242,0.8234,0.8231,0.8229,0.8228,0.8207,0.8208,0,0,0,0,0,0,0.8669,0.8648,0.8542,0.8534,0.8579,0.8496,0.8481,0.846,0.8377,0.8363,0.84,0.8395,0.8294,0.8284,0.8276,0.828,0.8231,0.8227,0.8226,0.8205,0.8207,0.8209,0,0,0,0,0,0,0.8673,0.8661,0.8546,0.8589,0.8573,0.8495,0.8472,0.8458,0.8439,0.8363,0.8349,0.8395,0.8292,0.8281,0.826,0.8275,0.8226,0.8223,0.8204,0.8206,0.8208,0.8291,0,0,0,0,0,0,0.8677,0.8662,0.8665,0.859,0.8571,0.8532,0.8473,0.8457,0.8433,0.8425,0.8355,0.8342,0.829,0.8265,0.8256,0.827,0.8221,0.8202,0.8205,0.8207,0.8286,0.8295,0.8303,0,0,0,0,0,0.8682,0.8695,0.8666,0.8654,0.8573,0.8533,0.8522,0.8461,0.8435,0.8437,0.8388,0.8344,0.8275,0.8264,0.8253,0.8266,0.8201,0.8204,0.8207,0.8282,0.8294,0.8303,0,0,0,0,0,0,0.8776,0.8684,0.8651,0.8639,0.8594,0.8517,0.8518,0.8476,0.8439,0.8433,0.836,0.8345,0.8331,0.8297,0.8286,0.827,0.8232,0.8233,0.8293,0.8303,0.8311,0.8319,0.8218,0,0,0,0,0,0.8795,0.8769,0.8691,0.8688,0.8667,0.8596,0.8577,0.8534,0.8485,0.8466,0.8416,0.8371,0.8338,0.8319,0.8286,0.8281,0.8263,0.8284,0.8293,0.83,0.8302,0.8294,0.8302,0.8219,0.8219,0.8219,0,0,0.8834,0.8781,0.8769,0.8705,0.8665,0.864,0.8581,0.8558,0.8539,0.8463,0.8439,0.84,0.8345,0.8332,0.8324,0.8303,0.8321,0.8304,0.8311,0.8308,0.8298,0.8306,0.8313,0.8221,0.8221,0.822,0,0,0.8892,0.885,0.8841,0.8802,0.8742,0.8695,0.8693,0.8621,0.8592,0.8567,0.8508,0.8485,0.8432,0.8394,0.8368,0.8411,0.8368,0.8402,0.8446,0.8439,0.8446,0.8451,0.8464,0.847,0.8404,0.8404,0.8404,0,0.8949,0.8908,0.8843,0.8822,0.8795,0.8723,0.8714,0.8679,0.8613,0.8595,0.8573,0.8502,0.8461,0.8436,0.8446,0.8428,0.8423,0.8409,0.845,0.8455,0.8459,0.847,0.8476,0.8409,0.8408,0.8408,0.8407,0,0.898,0.8953,0.8953,0.8888,0.8861,0.8846,0.8778,0.8759,0.8718,0.8674,0.8648,0.8595,0.8548,0.8539,0.8501,0.8509,0.8497,0.8464,0.8424,0.8472,0.8482,0.8486,0.8415,0.8413,0.8412,0.8411,0,0,0.9094,0.8991,0.8992,0.896,0.8888,0.8866,0.8848,0.88,0.8784,0.8741,0.8722,0.8678,0.8646,0.8616,0.8572,0.8567,0.8601,0.8533,0.8531,0.8546,0.8604,0.8629,0.8635,0.8572,0.8573,0.8574,0.8608,0,0.9139,0.91,0.904,0.9021,0.8994,0.8925,0.8909,0.8863,0.8821,0.8792,0.8746,0.8714,0.8675,0.8656,0.8648,0.8599,0.8611,0.8596,0.8554,0.8553,0.8568,0.864,0.8666,0.8701,0.8612,0.8612,0.8613,0,0.9187,0.9144,0.9122,0.9049,0.9036,0.9022,0.8973,0.8947,0.8893,0.8862,0.8828,0.878,0.8756,0.8721,0.8687,0.8678,0.8658,0.8631,0.8631,0.8623,0.8585,0.8633,0.8711,0.8716,0.8618,0.8618,0.8617,0,0.9269,0.9207,0.9184,0.916,0.9076,0.9067,0.9032,0.8976,0.8951,0.8908,0.8891,0.8847,0.8823,0.879,0.8731,0.8711,0.8702,0.8663,0.8675,0.8677,0.8676,0.8676,0.875,0.8666,0.8666,0.8666,0.8666,0,0.9324,0.9313,0.922,0.9206,0.9191,0.9122,0.911,0.9068,0.9019,0.8996,0.8935,0.8915,0.8838,0.8809,0.8763,0.8741,0.8731,0.8705,0.8692,0.8709,0.8712,0.8694,0.8689,0.8667,0.8667,0.8667,0.8667,0,0.9413,0.935,0.9321,0.9243,0.9223,0.9215,0.9148,0.9132,0.9086,0.9057,0.9047,0.8974,0.8937,0.8874,0.882,0.8788,0.8774,0.8754,0.8791,0.8783,0.8798,0.8797,0.8861,0.8865,0.8782,0.8783,0.8784,0,0.9452,0.9441,0.9361,0.934,0.9306,0.9274,0.9247,0.9179,0.9154,0.909,0.9082,0.9039,0.9001,0.8944,0.8887,0.8844,0.8821,0.8847,0.8815,0.8831,0.8819,0.8819,0.8817,0.8854,0.8855,0.8856,0.8857,0,0.9526,0.9495,0.9458,0.9409,0.9379,0.9338,0.9294,0.9281,0.9203,0.9178,0.9137,0.9108,0.905,0.9008,0.8957,0.892,0.8875,0.8868,0.8868,0.8884,0.8905,0.8891,0.8809,0.8866,0.8865,0.8865,0.8864,0.8864,0.9589,0.9575,0.9516,0.9476,0.9435,0.9395,0.9376,0.9326,0.9291,0.9237,0.92,0.9162,0.9106,0.9032,0.8998,0.8968,0.8948,0.8949,0.8948,0.8949,0.8954,0.8912,0.8958,0.8958,0.8958,0.8957,0.8957,0,0.9658,0.9616,0.958,0.9519,0.9488,0.9447,0.9396,0.9373,0.9339,0.9291,0.9254,0.9208,0.9166,0.9105,0.9058,0.9045,0.9023,0.9035,0.9035,0.9026,0.8976,0.898,0.9054,0.9054,0.9054,0.9054,0.9054,0.9054,0.969,0.9663,0.9625,0.9578,0.9536,0.9497,0.9471,0.9433,0.9394,0.9344,0.9308,0.9268,0.9214,0.9163,0.9123,0.9106,0.9091,0.9109,0.9085,0.9039,0.903,0.9022,0.9024,0.9107,0.9107,0.9138,0.9138,0.9138]}]]